FENGYUN 4C

Last updated on Sun Apr 12 2026 00:02:57 GMT+0000 (Coordinated Universal Time)

1 67246U 25312A 26101.33316958 -.00000322 00000+0 00000+0 0 9992 2 67246 0.0393 51.1335 0000836 53.5964 347.7609 1.00271195 1114
UTC large
Height (km)
Speed (km/s)
/
Latitude / Longitude
Inclination (degrees)
Orbital Period (minutes)
Azimuth
Elevation
Range (km)
Doppler Factor

Next 0 passes for location: London (51.5072 / 0.1276)

Sorry there are no passes over London.
FENGYUN 4C